Regional Weather Roundup
Issued by NWS

Home | Current Version | Previous Version | Graphics & Text | Print | Product List | Glossary Off
Versions: 1 2 3 4 5 6 7 8 9 10 11 12 13 14 15 16 17 18 19 20 21 22 23 24 25 26 27 28 29 30 31 32 33 34 35 36 37 38 39 40 41 42 43 44 45 46 47 48 49 50

000
ASUS43 KDMX 280106
RWRIA

WEATHER ROUNDUP FOR IOWA
NATIONAL WEATHER SERVICE DES MOINES IA
800 PM CDT SUN MAY 27 2018

NOTE: "FAIR" INDICATES FEW OR NO CLOUDS BELOW 12,000 FEET WITH NO
SIGNIFICANT WEATHER AND/OR OBSTRUCTIONS TO VISIBILITY.

* - THESE STATIONS ARE NOT NWS STATIONS...THUS NOT UNDER NWS
QUALITY CONTROL.  THEY ALSO DO NOT REPORT WEATHER SUCH
AS PRECIPITATION OR FOG.

IAZ001>003-012>014-020>022-031>034-043>046-280200-
   NORTHWEST IOWA

CITY           SKY/WX    TMP DP  RH WIND       PRES   REMARKS
CARROLL *      PTCLDY    95  57  28 CALM      29.83R HX  94
CHEROKEE *     MOCLDY    86  63  45 S7        29.80R HX  87
DENISON *      CLOUDY    91  66  43 CALM      29.83S HX  94
LE MARS *      MOCLDY    95  55  26 S7        29.78R HX  93
ORANGE CITY *  MOCLDY    93  55  27 SW12G17   29.79S HX  91
SHELDON *      CLOUDY    95  55  26 SW9       29.77S HX  93
SIOUX CITY     CLOUDY    92  59  33 S8        29.78S HX  91
SPENCER        CLOUDY    92  56  29 S9        29.79S HX  90
STORM LAKE *   PTCLDY    93  55  27 S10       29.82S HX  91
$$

IAZ055>058-069>071-079>083-090>094-280200-
   SOUTHWEST IOWA

CITY           SKY/WX    TMP DP  RH WIND       PRES   REMARKS
ATLANTIC *     CLOUDY    90  61  37 S3        29.82R HX  89
AUDUBON *      CLOUDY    91  63  38 CALM      29.84S HX  92
CLARINDA *     CLEAR     91  64  40 SE3       29.83S HX  93
COUNCIL BLFS * CLEAR     90  64  43 SW5       29.82R HX  91
CRESTON *      CLEAR     91  64  40 SE7       29.86R HX  93
HARLAN  *      CLOUDY    91  63  38 S5        29.85S HX  92
LAMONI         CLOUDY    90  69  50 CALM      29.85R HX  94
RED OAK *      CLEAR     93  63  36 SE3       29.81S HX  94
SHENANDOAH *   CLOUDY    93  61  33 SW6       29.81S HX  93
$$

IAZ047>049-059>061-072>074-084-280200-
   CENTRAL IOWA

CITY           SKY/WX    TMP DP  RH WIND       PRES   REMARKS
AMES           MOCLDY    83  68  60 S7        29.82R HX  86
ANKENY *       CLOUDY    86  70  58 CALM      29.83R HX  90
BOONE *        MOCLDY    88  64  45 W12       29.84R HX  89
CHARITON *     CLOUDY    88  72  58 SE7       29.84S HX  94
DES MOINES     CLOUDY    92  67  43 S5        29.82R HX  95
GRINNELL*      CLOUDY    90  63  40 SE8       29.85S HX  90
KNOXVILLE *    PTCLDY    90  64  43 SE5       29.83R HX  91
MARSHALLTOWN   CLOUDY    89  64  43 SE7       29.82F HX  90
NEWTON *       CLOUDY    91  64  40 SE3       29.84R HX  93
PELLA *        PTCLDY    89  65  45 CALM      29.85R HX  90
PERRY *        FAIR      89  54  30 E5        29.84R HX  87
$$

IAZ004>006-015-016-023>025-035-036-280200-
   NORTH CENTRAL IOWA

CITY           SKY/WX    TMP DP  RH WIND       PRES   REMARKS
ALGONA *       CLOUDY    90  59  35 SE12      29.82R HX  89
CLARION *      CLOUDY    91  54  27 SE9       29.83R HX  89
ESTHERVILLE    PTCLDY    90  58  33 SE16      29.79S HX  89
FORT DODGE *   CLOUDY    84  61  45 NW9       29.83R HX  84
MASON CITY     CLOUDY    89  57  33 SE9       29.85R HX  88
FOREST CITY *  FAIR      86  54  32 SE6       29.84R HX  84
WEBSTER CITY * CLOUDY    86  59  39 SE6       29.81R HX  85
IOWA FALLS *   FAIR      87  60  41 E5        29.85S HX  86
$$

IAZ007>011-017>019-026>030-037>042-050>054-066-280200-
   NORTHEAST IOWA

CITY           SKY/WX    TMP DP  RH WIND       PRES   REMARKS
CEDAR RAPIDS   FAIR      85  69  58 S5        29.84R HX  89
CHARLES CITY * FAIR      84  59  42 E9        29.86S HX  84
CLINTON *        N/A     85  70  60 E3        29.85S HX  89
DECORAH *      FAIR      86  57  37 CALM      29.86S HX  85
DUBUQUE        FAIR      86  66  51 E5        29.86R HX  88
MONTICELLO *   FAIR      88  66  48 CALM      29.84R HX  90
OELWEIN *      FAIR      86  61  42 E6        29.86S HX  86
WATERLOO       FAIR      82  61  48 E8        29.83R HX  83
$$

IAZ064-065-067-068-078-280200-
   EAST CENTRAL IOWA

CITY           SKY/WX    TMP DP  RH WIND       PRES   REMARKS
DAVENPORT        N/A     85  70  60 SE9       29.86R HX  89
IOWA CITY      FAIR      85  66  53 S7        29.85R HX  87
MT. PLEASANT * CLOUDY    82  70  65 S5        29.85R HX  86
MUSCATINE *    FAIR      82  73  74 CALM      29.85R HX  88
QUAD CITIES    FAIR      83  76  79 CALM      29.85R HX  91
$$

IAZ062-063-075>077-085>089-095>099-280200-
   SOUTHEAST IOWA

CITY           SKY/WX    TMP DP  RH WIND       PRES   REMARKS
BURLINGTON     CLOUDY    84  69  60 SE5       29.85S HX  88
FAIRFIELD *    MOCLDY    86  68  54 SE7       29.84R HX  89
FORT MADISON * CLOUDY    84  72  65 S6        29.86S HX  89
KEOKUK *       CLOUDY    81  73  78 CALM      29.85R HX  85
OSKALOOSA *    FAIR      90  62  38 CALM      29.85R HX  90
CENTERVILLE *    N/A     86  75  70 CALM      29.87R HX  95
OTTUMWA        PTCLDY    90  66  45 CALM      29.83S HX  92
WASHINGTON *   PTCLDY    86  72  62 S6        29.86R HX  92
$$

ABBREVIATIONS USED IN REMARKS
   TC - TEMPERATURES IN CELSIUS
  WCI - WIND CHILL INDEX
   HX - HEAT INDEX
  VSB - VISIBILITY
$$




USA.gov is the U.S. government's official web portal to all federal, state and local government web resources and services.